When you browse on this site, cookies collect data to enhance your experience and personalize the content and advertising you see.
Visit our Privacy Policy to learn more. By continuing to use the site, you agree to this use of cookies and data.
  • In United Kingdom
  • List of Countries
  • For 7 days
  • Water Temperature
  • Weather Map
  • Weather Widgets
  • user-avatar
    Login

    Hourly Weather Andippatti

    Today, 5 April, Sunday

    Time Temperature Precipitation Wind Pressure Humidity
    00:00 +28°C° 0 mm 1 mps 725 mmHg 65%
    01:00 +27°C° 0 mm 1 mps 724 mmHg 68%
    02:00 +25°C° 0 mm 0 mps 724 mmHg 70%
    03:00 +25°C° 0 mm 0 mps 724 mmHg 71%
    04:00 +24°C° 0 mm 0 mps 724 mmHg 71%
    05:00 +24°C° 0 mm 0 mps 724 mmHg 72%
    06:00 +26°C° 0 mm 0 mps 725 mmHg 68%
    07:00 +27°C° 0 mm 0 mps 726 mmHg 64%
    08:00 +28°C° 0 mm 0 mps 726 mmHg 60%
    09:00 +31°C° 0.1 mm 1 mps 726 mmHg 58%
    10:00 +31°C° 0.1 mm 1 mps 727 mmHg 56%
    11:00 +32°C° 0 mm 2 mps 727 mmHg 54%
    12:00 +34°C° 0.2 mm 2 mps 726 mmHg 52%
    13:00 +35°C° 0.2 mm 2 mps 725 mmHg 51%
    14:00 +35°C° 0.2 mm 3 mps 724 mmHg 49%
    15:00 +35°C° 0.6 mm 3 mps 724 mmHg 50%
    16:00 +34°C° 0.6 mm 2 mps 724 mmHg 51%
    17:00 +34°C° 0.6 mm 2 mps 724 mmHg 52%
    18:00 +32°C° 1.9 mm 2 mps 724 mmHg 59%
    19:00 +30°C° 1.9 mm 2 mps 725 mmHg 65%
    20:00 +29°C° 1.9 mm 2 mps 725 mmHg 72%
    21:00 +28°C° 1.1 mm 1 mps 725 mmHg 74%
    22:00 +28°C° 1.1 mm 1 mps 726 mmHg 76%
    23:00 +26°C° 1.1 mm 0 mps 726 mmHg 77%

    Tomorrow, 6 April, Monday

    Time Temperature Precipitation Wind Pressure Humidity
    00:00 +25°C° 0.1 mm 0 mps 726 mmHg 78%
    01:00 +25°C° 0.1 mm 0 mps 725 mmHg 80%
    02:00 +25°C° 0.1 mm 0 mps 724 mmHg 81%
    03:00 +25°C° 0 mm 0 mps 724 mmHg 81%
    04:00 +24°C° 0 mm 0 mps 724 mmHg 82%
    05:00 +24°C° 0 mm 0 mps 724 mmHg 83%
    06:00 +25°C° 0 mm 0 mps 725 mmHg 77%
    07:00 +26°C° 0 mm 0 mps 726 mmHg 72%
    08:00 +28°C° 0 mm 0 mps 727 mmHg 67%
    09:00 +31°C° 0 mm 1 mps 726 mmHg 61%
    10:00 +33°C° 0 mm 1 mps 726 mmHg 54%
    11:00 +34°C° 0 mm 1 mps 726 mmHg 48%
    12:00 +36°C° 0 mm 2 mps 725 mmHg 43%
    13:00 +37°C° 0 mm 2 mps 725 mmHg 39%
    14:00 +38°C° 0 mm 2 mps 724 mmHg 34%
    15:00 +38°C° 0 mm 2 mps 723 mmHg 35%
    16:00 +37°C° 0 mm 3 mps 723 mmHg 35%
    17:00 +37°C° 0 mm 3 mps 723 mmHg 36%
    18:00 +36°C° 0 mm 3 mps 723 mmHg 41%
    19:00 +34°C° 0 mm 2 mps 724 mmHg 47%
    20:00 +32°C° 0 mm 2 mps 725 mmHg 53%
    21:00 +31°C° 0.1 mm 2 mps 725 mmHg 59%
    22:00 +30°C° 0.1 mm 1 mps 725 mmHg 66%
    23:00 +29°C° 0.1 mm 1 mps 725 mmHg 72%

    Day after tomorrow, 7 April, Tuesday

    Time Temperature Precipitation Wind Pressure Humidity
    00:00 +29°C° 0.1 mm 1 mps 724 mmHg 74%
    01:00 +28°C° 0.1 mm 1 mps 724 mmHg 76%
    02:00 +28°C° 0.1 mm 1 mps 724 mmHg 78%
    03:00 +26°C° 0 mm 0 mps 724 mmHg 79%
    04:00 +25°C° 0 mm 0 mps 724 mmHg 80%
    05:00 +25°C° 0 mm 0 mps 724 mmHg 80%
    06:00 +26°C° 0 mm 0 mps 724 mmHg 75%
    07:00 +27°C° 0 mm 0 mps 725 mmHg 70%
    08:00 +28°C° 0 mm 0 mps 726 mmHg 64%
    09:00 +32°C° 0 mm 1 mps 726 mmHg 56%
    10:00 +34°C° 0 mm 1 mps 725 mmHg 48%
    11:00 +36°C° 0 mm 1 mps 725 mmHg 40%
    12:00 +37°C° 0 mm 2 mps 724 mmHg 37%
    13:00 +38°C° 0 mm 2 mps 724 mmHg 34%
    14:00 +39°C° 0 mm 3 mps 723 mmHg 31%
    15:00 +37°C° 0 mm 3 mps 722 mmHg 34%
    16:00 +36°C° 0 mm 2 mps 722 mmHg 37%
    17:00 +35°C° 0 mm 2 mps 722 mmHg 40%
    18:00 +34°C° 0.1 mm 2 mps 723 mmHg 46%
    19:00 +32°C° 0.1 mm 2 mps 723 mmHg 52%
    20:00 +31°C° 0.1 mm 2 mps 724 mmHg 58%
    21:00 +30°C° 0.1 mm 2 mps 724 mmHg 61%
    22:00 +30°C° 0.1 mm 1 mps 724 mmHg 64%
    23:00 +29°C° 0.1 mm 1 mps 724 mmHg 67%

    8 April, Wednesday

    Time Temperature Precipitation Wind Pressure Humidity
    00:00 +29°C° 0.2 mm 1 mps 724 mmHg 68%
    01:00 +28°C° 0.2 mm 1 mps 723 mmHg 70%
    02:00 +28°C° 0.2 mm 1 mps 723 mmHg 71%
    03:00 +28°C° 0 mm 1 mps 723 mmHg 71%
    04:00 +27°C° 0 mm 1 mps 723 mmHg 71%
    05:00 +27°C° 0 mm 1 mps 723 mmHg 70%
    06:00 +29°C° 0 mm 1 mps 724 mmHg 65%
    07:00 +30°C° 0 mm 1 mps 725 mmHg 60%
    08:00 +31°C° 0 mm 1 mps 726 mmHg 55%
    09:00 +33°C° 0 mm 1 mps 725 mmHg 50%
    10:00 +34°C° 0 mm 1 mps 725 mmHg 45%
    11:00 +36°C° 0 mm 1 mps 725 mmHg 39%
    12:00 +36°C° 0.1 mm 1 mps 725 mmHg 37%
    13:00 +37°C° 0.1 mm 2 mps 724 mmHg 35%
    14:00 +38°C° 0.1 mm 2 mps 723 mmHg 32%
    15:00 +36°C° 0.4 mm 2 mps 723 mmHg 39%
    16:00 +34°C° 0.4 mm 2 mps 722 mmHg 46%
    17:00 +31°C° 0.4 mm 2 mps 722 mmHg 53%
    18:00 +31°C° 0.3 mm 2 mps 723 mmHg 55%
    19:00 +30°C° 0.3 mm 1 mps 724 mmHg 57%
    20:00 +29°C° 0.3 mm 1 mps 724 mmHg 60%
    21:00 +29°C° 0.1 mm 1 mps 724 mmHg 61%
    22:00 +29°C° 0.1 mm 1 mps 724 mmHg 61%
    23:00 +29°C° 0.1 mm 1 mps 724 mmHg 62%

    9 April, Thursday

    Time Temperature Precipitation Wind Pressure Humidity
    00:00 +29°C° 0 mm 1 mps 723 mmHg 62%
    01:00 +29°C° 0 mm 1 mps 723 mmHg 62%
    02:00 +28°C° 0 mm 1 mps 722 mmHg 62%
    03:00 +28°C° 0 mm 1 mps 723 mmHg 62%
    04:00 +28°C° 0 mm 1 mps 723 mmHg 63%
    05:00 +28°C° 0 mm 1 mps 723 mmHg 63%
    06:00 +29°C° 0 mm 1 mps 724 mmHg 60%
    07:00 +30°C° 0 mm 1 mps 724 mmHg 57%
    08:00 +31°C° 0 mm 1 mps 725 mmHg 55%
    09:00 +32°C° 0 mm 1 mps 725 mmHg 50%
    10:00 +34°C° 0 mm 1 mps 725 mmHg 45%
    11:00 +36°C° 0 mm 2 mps 725 mmHg 40%
    12:00 +37°C° 0.1 mm 2 mps 724 mmHg 37%
    13:00 +38°C° 0.1 mm 2 mps 723 mmHg 35%
    14:00 +38°C° 0.1 mm 2 mps 722 mmHg 33%
    15:00 +36°C° 0.6 mm 3 mps 722 mmHg 41%
    16:00 +34°C° 0.6 mm 3 mps 722 mmHg 49%
    17:00 +31°C° 0.6 mm 3 mps 722 mmHg 56%
    18:00 +30°C° 0.8 mm 2 mps 722 mmHg 60%
    19:00 +29°C° 0.8 mm 2 mps 723 mmHg 63%
    20:00 +28°C° 0.8 mm 2 mps 723 mmHg 67%
    21:00 +28°C° 0.2 mm 1 mps 724 mmHg 68%
    22:00 +28°C° 0.2 mm 1 mps 724 mmHg 69%
    23:00 +28°C° 0.2 mm 1 mps 724 mmHg 70%

    10 April, Friday

    Time Temperature Precipitation Wind Pressure Humidity
    00:00 +28°C° 0 mm 1 mps 723 mmHg 70%
    01:00 +25°C° 0 mm 0 mps 723 mmHg 70%
    02:00 +25°C° 0 mm 0 mps 722 mmHg 71%
    03:00 +25°C° 0 mm 0 mps 722 mmHg 71%
    04:00 +25°C° 0 mm 0 mps 722 mmHg 72%
    05:00 +24°C° 0 mm 0 mps 723 mmHg 73%
    06:00 +28°C° 0 mm 1 mps 723 mmHg 69%
    07:00 +29°C° 0 mm 1 mps 724 mmHg 65%
    08:00 +30°C° 0 mm 1 mps 725 mmHg 61%
    09:00 +32°C° 0 mm 1 mps 725 mmHg 55%
    10:00 +34°C° 0 mm 2 mps 725 mmHg 48%
    11:00 +36°C° 0 mm 2 mps 725 mmHg 42%
    12:00 +37°C° 0 mm 2 mps 724 mmHg 38%
    13:00 +37°C° 0 mm 3 mps 723 mmHg 34%
    14:00 +38°C° 0 mm 3 mps 722 mmHg 31%
    15:00 +38°C° 0 mm 3 mps 722 mmHg 32%
    16:00 +37°C° 0 mm 3 mps 722 mmHg 33%
    17:00 +37°C° 0 mm 2 mps 722 mmHg 34%
    18:00 +35°C° 0 mm 2 mps 723 mmHg 40%
    19:00 +34°C° 0 mm 2 mps 723 mmHg 45%
    20:00 +31°C° 0 mm 2 mps 723 mmHg 51%
    21:00 +30°C° 0.1 mm 2 mps 724 mmHg 53%
    22:00 +30°C° 0.1 mm 1 mps 724 mmHg 56%
    23:00 +29°C° 0.1 mm 1 mps 724 mmHg 58%
    Show more